North Myrtle Beach, SC

1:53 AM EST on January 23, 2018 (GMT -0500)
Grand Strand

Weather History for KCRE - November, 2013

Change the Weather History Date:

Sunday, November 24, 2013

  Actual Average Record
Temperature  
Mean Temperature 40 °F 54 °F  
Max Temperature 53 °F 64 °F 76 °F (1993)
Min Temperature 27 °F 44 °F 27 °F (2013)
Degree Days  
Heating Degree Days 25 11  
Month to date heating degree days 217 199  
Since 1 July heating degree days 294 289  
Cooling Degree Days 0 0  
Month to date cooling degree days 23 12  
Year to date cooling degree days 1840 1895  
Moisture  
Dew Point 15 °F    
Average Humidity 39    
Maximum Humidity 58    
Minimum Humidity 19    
Precipitation  
Precipitation 0.00 in 0.10 in 1.04 in (2001)
Month to date precipitation 1.70 2.43  
Year to date precipitation 45.19 47.94  
Sea Level Pressure  
Sea Level Pressure 30.37 in    
Wind  
Wind Speed 9 mph (North)    
Max Wind Speed 22 mph    
Max Gust Speed 32 mph    
Visibility 10 miles    
Events      
T = Trace of Precipitation, MM = Missing Value Source: NWS Daily Summary

Daily Weather History Graph

Daily Weather History Graph

Search for Another Location

Airport or City:

Trip Planner

Search our weather history database for the weather conditions in past years. The results will help you decide how hot, cold, wet, or windy it might be!

Date:

Astronomy

Nov. 24, 2013 Rise Set
Actual Time 6:55 AM EST 5:07 PM EST
Civil Twilight 6:28 AM EST 5:34 PM EST
Nautical Twilight 5:58 AM EST 6:05 PM EST
Astronomical Twilight 5:28 AM EST 6:34 PM EST
Moon 11:22 PM EST (11/24) 11:50 AM EST (11/24)
Length of Visible Light 11h 05m
Length of Day
10h 11m
Waning Gibbous, 61% of the Moon is Illuminated
Nov 24
Waning Gibbous
Nov 25
Last Quarter
Dec 2
New
Dec 9
First Quarter
Dec 17
Full

Hourly Weather History & Observations

Time (EST) Temp. Windchill Dew Point Humidity Pressure Visibility Wind Dir Wind Speed Gust Speed Precip Events Conditions
12:53 AM 50.0 °F - 35.1 °F 57% 30.12 in 10.0 mi North 5.8 mph - N/A   Clear
1:53 AM 48.0 °F - 28.9 °F 48% 30.16 in 10.0 mi North 9.2 mph 19.6 mph N/A   Clear
2:53 AM 46.0 °F 42.5 °F 26.1 °F 46% 30.17 in 10.0 mi North 6.9 mph - N/A   Clear
3:53 AM 44.1 °F 37.7 °F 24.1 °F 45% 30.19 in 10.0 mi North 12.7 mph 20.7 mph N/A   Clear
4:53 AM 41.0 °F 35.8 °F 24.1 °F 51% 30.22 in 10.0 mi North 8.1 mph - N/A   Clear
5:53 AM 39.9 °F 33.9 °F 23.0 °F 51% 30.25 in 10.0 mi North 9.2 mph - N/A   Clear
6:53 AM 39.0 °F 31.4 °F 19.0 °F 45% 30.29 in 10.0 mi North 12.7 mph - N/A   Clear
7:53 AM 37.9 °F 30.9 °F 17.1 °F 43% 30.33 in 10.0 mi North 10.4 mph 23.0 mph N/A   Clear
8:53 AM 39.0 °F 30.6 °F 17.1 °F 41% 30.36 in 10.0 mi North 15.0 mph 26.5 mph N/A   Clear
9:53 AM 41.0 °F 33.9 °F 16.0 °F 36% 30.38 in 10.0 mi North 12.7 mph 25.3 mph N/A   Clear
10:53 AM 42.1 °F 34.2 °F 14.0 °F 32% 30.40 in 10.0 mi NNE 16.1 mph 23.0 mph N/A   Clear
11:53 AM 43.0 °F 35.7 °F 9.0 °F 25% 30.40 in 10.0 mi North 15.0 mph 23.0 mph N/A   Clear
12:53 PM 45.0 °F 38.5 °F 8.1 °F 22% 30.39 in 10.0 mi North 13.8 mph 24.2 mph N/A   Clear
1:53 PM 44.1 °F 37.1 °F 5.0 °F 20% 30.38 in 10.0 mi North 15.0 mph 24.2 mph N/A   Clear
2:53 PM 44.1 °F 37.1 °F 5.0 °F 20% 30.38 in 10.0 mi NNE 15.0 mph - N/A   Clear
3:53 PM 43.0 °F 36.8 °F 5.0 °F 21% 30.40 in 10.0 mi North 11.5 mph 21.9 mph N/A   Clear
4:53 PM 39.9 °F 33.9 °F 6.1 °F 25% 30.42 in 10.0 mi North 9.2 mph - N/A   Clear
5:53 PM 36.0 °F 32.1 °F 10.0 °F 34% 30.45 in 10.0 mi North 4.6 mph - N/A   Clear
6:53 PM 33.1 °F 28.7 °F 12.9 °F 43% 30.47 in 10.0 mi North 4.6 mph - N/A   Clear
7:53 PM 33.1 °F 28.7 °F 9.0 °F 37% 30.50 in 10.0 mi NNE 4.6 mph - N/A   Clear
8:53 PM 30.9 °F 27.5 °F 10.9 °F 43% 30.52 in 10.0 mi North 3.5 mph - N/A   Clear
9:53 PM 28.9 °F - 15.1 °F 56% 30.54 in 10.0 mi Calm Calm - N/A   Clear
10:53 PM 28.9 °F 25.2 °F 15.1 °F 56% 30.53 in 10.0 mi NE 3.5 mph - N/A   Clear
11:53 PM 28.9 °F 21.9 °F 12.9 °F 51% 30.52 in 10.0 mi NNE 6.9 mph - N/A   Clear